Regional Weather Roundup
Issued by NWS Little Rock, AR

Home | Current Version | Previous Version | Text Only | Print | Product List | Glossary Off
Versions: 1 2 3 4 5 6 7 8 9 10 11 12 13 14 15 16 17 18 19 20 21 22 23 24 25 26 27 28 29 30 31

000
ASUS44 KLZK 171505
RWRLZK

WEATHER ROUNDUP FOR ARKANSAS
NATIONAL WEATHER SERVICE LITTLE ROCK AR
900 AM CST TUE JAN 17 2017

NOTE: "FAIR" INDICATES FEW OR NO CLOUDS BELOW 12,000 FEET WITH NO
SIGNIFICANT WEATHER AND/OR OBSTRUCTIONS TO VISIBILITY.

ARZ001-003-010-029-171600-
NORTHWEST ARKANSAS

CITY           SKY/WX    TMP DP  RH WIND       PRES   REMARKS
FAYETTEVILLE   CLOUDY    37  36  96 W9        30.12R
FORT SMITH     SUNNY     40  35  83 W9        30.15R
HARRISON       CLOUDY    39  36  89 W8        30.09R
BENTONVILLE    CLOUDY   N/A N/A N/A NW9       30.12R
ROGERS         CLOUDY    38  35  89 W10       30.12R
SILOAM SPGS    CLOUDY    37  34  87 W8        30.12R
HIGHFILL       CLOUDY    38  35  89 NW10      30.12R
SPRINGDALE     CLOUDY    37  36  93 W10       30.13R
$$

ARZ004-005-016-171600-
NORTH CENTRAL ARKANSAS

CITY           SKY/WX    TMP DP  RH WIND       PRES   REMARKS
BATESVILLE     PTSUNNY   45  39  81 NW5       30.11S
FLIPPIN        CLOUDY    43  34  70 W6        30.08R
MTN HOME       CLOUDY    41  37  86 VRB5      30.08R
$$

ARZ040-041-171600-
WEST CENTRAL ARKANSAS

CITY           SKY/WX    TMP DP  RH WIND       PRES   REMARKS
MENA           MOSUNNY   43  41  93 W3        30.14R
MOUNT IDA      CLOUDY    44  36  73 NW8       30.12R
$$

ARZ009-017-025-026-028-171600-
NORTHEAST ARKANSAS

CITY           SKY/WX    TMP DP  RH WIND       PRES   REMARKS
JONESBORO      CLOUDY    47  39  74 W6        30.10R
NEWPORT        PTSUNNY   50  44  80 W6          N/A
WALNUT RIDGE   CLOUDY    45  37  76 W8        30.10S
BLYTHEVILLE    LGT RAIN  51  43  74 W6        30.10R
NW BLYTHEVILLE CLOUDY    50  41  71 W8        30.10
$$

ARZ022-023-033-042-044-171600-
CENTRAL ARKANSAS

CITY           SKY/WX    TMP DP  RH WIND       PRES   REMARKS
LITTLE ROCK    PTSUNNY   46  41  82 NW10      30.15R
N LITTLE ROCK    N/A     45  40  83 CALM      30.15R
JACKSONVILLE   CLOUDY    48  41  79 W8        30.14R
SEARCY         PTSUNNY   47  40  76 W10       30.15R
HOT SPRINGS    CLOUDY    46  40  79 NW7       30.14R
RUSSELLVILLE   PTSUNNY   42  36  79 SW6       30.14R
CLINTON        FAIR      43  39  87 SW6       30.12R
$$

ARZ036-171600-
EAST ARKANSAS

CITY           SKY/WX    TMP DP  RH WIND       PRES   REMARKS
WEST MEMPHIS   CLOUDY    52  48  86 VRB5      30.11R
$$

ARZ050-053-066-070-073-171600-
SOUTHWEST ARKANSAS

CITY           SKY/WX    TMP DP  RH WIND       PRES   REMARKS
ARKADELPHIA    CLOUDY    50  47  89 CALM      30.14S
CAMDEN         CLOUDY    54  46  76 W5        30.15R
TEXARKANA      PTSUNNY   50  45  83 NW7       30.14R
EL DORADO      CLOUDY    53  51  93 CALM      30.15R
DE QUEEN       MOSUNNY   44  39  82 W5        30.16R
$$

ARZ056-057-069-171600-
SOUTHEAST ARKANSAS

CITY           SKY/WX    TMP DP  RH WIND       PRES   REMARKS
PINE BLUFF     CLOUDY    52  49  89 W5        30.14R
STUTTGART      CLOUDY    50  41  71 NW10      30.14R
MONTICELLO     CLOUDY    55  51  86 SW3       30.14R

$$






USA.gov is the U.S. government's official web portal to all federal, state and local government web resources and services.